• Em Portugal
  • Lista de países
  • Para 7 dias
  • Temperatura da água
  • Mapas de satélite
  • Mapa do tempo
  • Widgets de tempo
  • user-avatar
    Iniciar Sessão

    Previsão horária em Belém

    Hoje, 23 Agosto, Quarta-feira

    Tempo Temperatura Precipitação Vento Pressão Humidade
    00:00 +26°C° 0 mm 2 m/s 759 mmHg 96%
    01:00 +25°C° 0,1 mm 2 m/s 759 mmHg 96%
    02:00 +25°C° 0,1 mm 1 m/s 758 mmHg 96%
    03:00 +25°C° 0,1 mm 1 m/s 758 mmHg 96%
    04:00 +25°C° 0 mm 1 m/s 757 mmHg 96%
    05:00 +25°C° 0 mm 1 m/s 757 mmHg 96%
    06:00 +24°C° 0 mm 1 m/s 757 mmHg 96%
    07:00 +26°C° 0 mm 1 m/s 758 mmHg 89%
    08:00 +28°C° 0 mm 1 m/s 758 mmHg 82%
    09:00 +30°C° 0 mm 2 m/s 759 mmHg 75%
    10:00 +31°C° 0,3 mm 2 m/s 759 mmHg 69%
    11:00 +32°C° 0,3 mm 2 m/s 759 mmHg 64%
    12:00 +34°C° 0,3 mm 3 m/s 759 mmHg 58%
    13:00 +35°C° 0,2 mm 2 m/s 758 mmHg 55%
    14:00 +35°C° 0,2 mm 2 m/s 757 mmHg 52%
    15:00 +36°C° 0,2 mm 2 m/s 757 mmHg 49%
    16:00 +34°C° 0 mm 2 m/s 757 mmHg 56%
    17:00 +31°C° 0 mm 2 m/s 757 mmHg 64%
    18:00 +30°C° 0 mm 2 m/s 757 mmHg 72%
    19:00 +29°C° 0 mm 2 m/s 757 mmHg 77%
    20:00 +28°C° 0 mm 2 m/s 757 mmHg 81%
    21:00 +27°C° 0 mm 2 m/s 758 mmHg 86%
    22:00 +26°C° 0 mm 2 m/s 758 mmHg 87%
    23:00 +26°C° 0 mm 2 m/s 758 mmHg 89%

    Amanhã, 24 Agosto, Quinta-feira

    Tempo Temperatura Precipitação Vento Pressão Humidade
    00:00 +26°C° 0 mm 2 m/s 758 mmHg 90%
    01:00 +26°C° 0 mm 2 m/s 757 mmHg 91%
    02:00 +25°C° 0 mm 2 m/s 757 mmHg 92%
    03:00 +25°C° 0 mm 2 m/s 756 mmHg 93%
    04:00 +25°C° 0 mm 2 m/s 757 mmHg 94%
    05:00 +25°C° 0 mm 2 m/s 757 mmHg 94%
    06:00 +25°C° 0 mm 2 m/s 757 mmHg 95%
    07:00 +26°C° 0 mm 2 m/s 758 mmHg 88%
    08:00 +28°C° 0 mm 3 m/s 758 mmHg 82%
    09:00 +29°C° 0 mm 3 m/s 759 mmHg 75%
    10:00 +31°C° 0,3 mm 3 m/s 759 mmHg 69%
    11:00 +33°C° 0,3 mm 3 m/s 759 mmHg 63%
    12:00 +34°C° 0,3 mm 2 m/s 759 mmHg 57%
    13:00 +34°C° 0,2 mm 2 m/s 758 mmHg 56%
    14:00 +34°C° 0,2 mm 2 m/s 757 mmHg 54%
    15:00 +35°C° 0,2 mm 2 m/s 756 mmHg 53%
    16:00 +32°C° 0,6 mm 2 m/s 756 mmHg 62%
    17:00 +30°C° 0,6 mm 2 m/s 756 mmHg 71%
    18:00 +28°C° 0,6 mm 2 m/s 756 mmHg 80%
    19:00 +27°C° 0,1 mm 2 m/s 757 mmHg 83%
    20:00 +27°C° 0,1 mm 2 m/s 758 mmHg 86%
    21:00 +26°C° 0,1 mm 2 m/s 758 mmHg 89%
    22:00 +26°C° 0 mm 2 m/s 759 mmHg 90%
    23:00 +25°C° 0 mm 2 m/s 759 mmHg 91%

    Depois de amanhã, 25 Agosto, Sexta-feira

    Tempo Temperatura Precipitação Vento Pressão Humidade
    00:00 +25°C° 0 mm 2 m/s 759 mmHg 91%
    01:00 +25°C° 0 mm 2 m/s 758 mmHg 92%
    02:00 +25°C° 0 mm 2 m/s 757 mmHg 93%
    03:00 +25°C° 0 mm 2 m/s 757 mmHg 94%
    04:00 +25°C° 0 mm 2 m/s 757 mmHg 94%
    05:00 +25°C° 0 mm 2 m/s 757 mmHg 94%
    06:00 +24°C° 0 mm 2 m/s 758 mmHg 94%
    07:00 +26°C° 0 mm 2 m/s 758 mmHg 86%
    08:00 +28°C° 0 mm 3 m/s 759 mmHg 78%
    09:00 +30°C° 0 mm 3 m/s 759 mmHg 71%
    10:00 +31°C° 0,1 mm 3 m/s 759 mmHg 65%
    11:00 +34°C° 0,1 mm 3 m/s 759 mmHg 59%
    12:00 +35°C° 0,1 mm 3 m/s 758 mmHg 53%
    13:00 +35°C° 0,1 mm 2 m/s 758 mmHg 51%
    14:00 +36°C° 0,1 mm 2 m/s 757 mmHg 49%
    15:00 +36°C° 0,1 mm 2 m/s 756 mmHg 47%
    16:00 +35°C° 0,1 mm 2 m/s 756 mmHg 53%
    17:00 +32°C° 0,1 mm 2 m/s 756 mmHg 59%
    18:00 +31°C° 0,1 mm 2 m/s 756 mmHg 65%
    19:00 +30°C° 0,1 mm 2 m/s 757 mmHg 70%
    20:00 +28°C° 0,1 mm 2 m/s 758 mmHg 75%
    21:00 +27°C° 0,1 mm 2 m/s 758 mmHg 80%
    22:00 +27°C° 0,1 mm 2 m/s 758 mmHg 83%
    23:00 +26°C° 0,1 mm 2 m/s 758 mmHg 86%

    26 Agosto, Sábado

    Tempo Temperatura Precipitação Vento Pressão Humidade
    00:00 +26°C° 0,1 mm 2 m/s 758 mmHg 89%
    01:00 +26°C° 0 mm 2 m/s 758 mmHg 90%
    02:00 +25°C° 0 mm 2 m/s 757 mmHg 92%
    03:00 +25°C° 0 mm 1 m/s 757 mmHg 93%
    04:00 +25°C° 0 mm 2 m/s 757 mmHg 94%
    05:00 +25°C° 0 mm 2 m/s 757 mmHg 94%
    06:00 +24°C° 0 mm 2 m/s 758 mmHg 95%
    07:00 +26°C° 0 mm 2 m/s 758 mmHg 87%
    08:00 +28°C° 0 mm 2 m/s 759 mmHg 80%
    09:00 +30°C° 0 mm 3 m/s 759 mmHg 72%
    10:00 +31°C° 0,1 mm 2 m/s 759 mmHg 65%
    11:00 +34°C° 0,1 mm 2 m/s 758 mmHg 58%
    12:00 +36°C° 0,1 mm 2 m/s 758 mmHg 50%
    13:00 +36°C° 0,1 mm 2 m/s 757 mmHg 49%
    14:00 +36°C° 0,1 mm 2 m/s 756 mmHg 49%
    15:00 +36°C° 0,1 mm 2 m/s 756 mmHg 48%
    16:00 +35°C° 0,1 mm 2 m/s 756 mmHg 55%
    17:00 +32°C° 0,1 mm 2 m/s 756 mmHg 62%
    18:00 +30°C° 0,1 mm 2 m/s 756 mmHg 70%
    19:00 +29°C° 0 mm 2 m/s 757 mmHg 74%
    20:00 +28°C° 0 mm 2 m/s 757 mmHg 78%
    21:00 +27°C° 0 mm 2 m/s 758 mmHg 81%
    22:00 +27°C° 0 mm 2 m/s 758 mmHg 83%
    23:00 +27°C° 0 mm 2 m/s 758 mmHg 85%

    27 Agosto, Domingo

    Tempo Temperatura Precipitação Vento Pressão Humidade
    00:00 +26°C° 0 mm 2 m/s 758 mmHg 87%
    01:00 +26°C° 0 mm 2 m/s 757 mmHg 89%
    02:00 +26°C° 0 mm 2 m/s 757 mmHg 91%
    03:00 +25°C° 0 mm 1 m/s 756 mmHg 92%
    04:00 +25°C° 0 mm 2 m/s 757 mmHg 93%
    05:00 +25°C° 0 mm 2 m/s 757 mmHg 93%
    06:00 +25°C° 0 mm 2 m/s 757 mmHg 93%
    07:00 +27°C° 0 mm 2 m/s 757 mmHg 86%
    08:00 +28°C° 0 mm 2 m/s 758 mmHg 78%
    09:00 +30°C° 0 mm 3 m/s 758 mmHg 70%
    10:00 +33°C° 0,1 mm 3 m/s 758 mmHg 64%
    11:00 +34°C° 0,1 mm 2 m/s 758 mmHg 58%
    12:00 +36°C° 0,1 mm 2 m/s 757 mmHg 52%
    13:00 +35°C° 0,1 mm 2 m/s 757 mmHg 52%
    14:00 +35°C° 0,1 mm 2 m/s 756 mmHg 52%
    15:00 +35°C° 0,1 mm 2 m/s 756 mmHg 52%
    16:00 +32°C° 0,3 mm 2 m/s 756 mmHg 62%
    17:00 +30°C° 0,3 mm 2 m/s 756 mmHg 72%
    18:00 +28°C° 0,3 mm 2 m/s 756 mmHg 82%
    19:00 +28°C° 0,1 mm 2 m/s 757 mmHg 85%
    20:00 +27°C° 0,1 mm 2 m/s 757 mmHg 87%
    21:00 +26°C° 0,1 mm 2 m/s 758 mmHg 89%
    22:00 +26°C° 0 mm 2 m/s 757 mmHg 90%
    23:00 +26°C° 0 mm 2 m/s 757 mmHg 90%

    28 Agosto, Segunda-feira

    Tempo Temperatura Precipitação Vento Pressão Humidade
    00:00 +26°C° 0 mm 2 m/s 757 mmHg 91%
    01:00 +26°C° 0 mm 2 m/s 757 mmHg 91%
    02:00 +25°C° 0 mm 2 m/s 756 mmHg 92%
    03:00 +25°C° 0 mm 2 m/s 756 mmHg 93%
    04:00 +25°C° 0 mm 2 m/s 756 mmHg 93%
    05:00 +25°C° 0 mm 2 m/s 757 mmHg 94%
    06:00 +25°C° 0 mm 2 m/s 757 mmHg 94%
    07:00 +27°C° 0 mm 2 m/s 757 mmHg 87%
    08:00 +28°C° 0 mm 3 m/s 758 mmHg 81%
    09:00 +30°C° 0 mm 3 m/s 759 mmHg 75%
    10:00 +31°C° 0,2 mm 3 m/s 758 mmHg 70%
    11:00 +33°C° 0,2 mm 3 m/s 758 mmHg 65%
    12:00 +34°C° 0,2 mm 3 m/s 758 mmHg 60%
    13:00 +35°C° 0,2 mm 2 m/s 757 mmHg 56%
    14:00 +35°C° 0,2 mm 2 m/s 757 mmHg 53%
    15:00 +36°C° 0,2 mm 2 m/s 756 mmHg 49%
    16:00 +34°C° 0,1 mm 2 m/s 756 mmHg 56%
    17:00 +32°C° 0,1 mm 2 m/s 756 mmHg 62%
    18:00 +31°C° 0,1 mm 2 m/s 757 mmHg 68%
    19:00 +30°C° 0 mm 2 m/s 757 mmHg 72%
    20:00 +29°C° 0 mm 2 m/s 757 mmHg 77%
    21:00 +28°C° 0 mm 2 m/s 758 mmHg 81%
    22:00 +27°C° 0 mm 2 m/s 758 mmHg 82%
    23:00 +27°C° 0 mm 2 m/s 758 mmHg 84%
    Mostrar mais